sat.trackr.live / text

‹ back to catalog

UNKNOWN

NORAD 82458

UNKNOWN UNKNOWN UNKNOWN

§ Identity

Operator
Country
Launch date
Launch site
Launch vehicle
Mass (kg)
RCS (m²)

External: N2YO · Heavens-Above

§ Orbital elements

Epoch: 2026-05-22T05:40:08.704704Z

Period
101.12 min
Inclination
66.5111°
Eccentricity
0.0063444
Mean motion
14.24081525 rev/d
Perigee alt
766.0 km
Apogee alt
857.2 km
Semi-major
7,189.7 km
B*
1.0618e-3
RAAN
124.9163°
Arg perigee
266.8576°
Mean anomaly
92.5258°
Rev number
63,288

§ Raw data

UNKNOWN1 82458U          26142.23621186  .00002411  00000+0  10618-2 0  99962 82458  66.5111 124.9163 0063444 266.8576  92.5258 14.24081525632886

JSON: /api/v1/satellites/82458 · /tle

For live sub-satellite position, see the globe view (requires WebGL).

§ Visibility from observer

Set your observer location to see the next 7 days of passes ≥ 10°. The values pass through the URL so the page stays shareable.

No JS? Fill the form by hand. The geolocation button needs JavaScript.